Skip Page Navigation
NASA JPL Caltech
NASA Logo - Jet Propulsion Laboratory + View the NASA Portal
+ Center for Near-Earth Object Studies
JPL Home Earth Solar System Stars & Galaxies Technology
JPL Solar System Dynamics
BODIES ORBITS EPHEMERIDES TOOLS PHYSICAL DATA DISCOVERY FAQ SITE MAP
JPL Small-Body Database Browser
Search: [ help ]  
85392 (1996 RR13)
Classification: Main-belt Asteroid          SPK-ID: 2085392
Ephemeris | Orbit Diagram | Orbital Elements | Mission Design | Physical Parameters | Discovery Circumstances | Close-Approach Data ]

[ show orbit diagram ]
Orbital Elements at Epoch 2459000.5 (2020-May-31.0) TDB
Reference: JPL 24 (heliocentric ecliptic J2000)
 Element Value Uncertainty (1-sigma)   Units 
e .1255734077600359 3.9125e-08  
a 2.762933643546141 1.2978e-08 au
q 2.4159826505112 1.0811e-07 au
i 4.262987437109937 4.4282e-06 deg
node 350.2017796026063 4.5846e-05 deg
peri 353.5619121955589 4.7993e-05 deg
M 66.53224494871782 1.344e-05 deg
tp 2458690.484230194526
(2019-Jul-25.98423019)
6.2494e-05 TDB
period 1677.4674778522
4.59
1.1819e-05
3.236e-08
d
yr
n .2146092277514302 1.5121e-09 deg/d
Q 3.109884636581082 1.4608e-08 au
  Orbit Determination Parameters
   # obs. used (total)      948  
   data-arc span      8811 days (24.12 yr)  
   first obs. used      1996-09-08  
   last obs. used      2020-10-23  
   planetary ephem.      DE431  
   SB-pert. ephem.      SB431-N16  
   condition code      0  
   norm. resid. RMS      .52902  
   source      ORB  
   producer      Otto Matic  
   solution date      2020-Nov-12 21:01:07  

Additional Information
 Earth MOID = 1.40833 au 
 Jupiter MOID = 2.27943 au 
 T_jup = 3.325 
[ show covariance matrix ]

Ephemeris | Orbit Diagram | Orbital Elements | Mission Design | Physical Parameters | Discovery Circumstances | Close-Approach Data ]

Physical Parameter Table
Parameter Symbol Value Units Sigma Reference Notes
absolute magnitude H 15.0   n/a MPO449530  
diameter diameter 5.107 km 0.075 urn:nasa:pds:neowise_diameters_albedos::2.0[mainbelt] (http://adsabs.harvard.edu/abs/2011ApJ...741...68M)  
geometric albedo albedo 0.098   0.017 urn:nasa:pds:neowise_diameters_albedos::2.0[mainbelt] (http://adsabs.harvard.edu/abs/2011ApJ...741...68M)  

85392 (1996 RR13)          Discovered 1996-Sep-08 by Spacewatch at Kitt Peak
Reference: 20040830/Numbers.arcLast Updated: 2004-09-06

[ hide close-approach data ]
Close-Approach Data   ...sorted by Date/Time (TDB)
Date/Time (TDB) Time Uncertainty
(days_HH:MM)
Body Nominal Distance (au) Minimum Distance (au) Maximum Distance (au) V-relative (km/s) V-infinity (km/s) JD (TDB) Time Uncertainty (minutes) Semi-major axis (km) Semi-minor axis (km) range-LOV angle (deg) N-sigma BP Orbit Ref. Reference Modified
2119-Mar-01 06:02 00:09 Iris 0.0224005004515289 0.0223812561026001 0.0224197458670154 3.53390565288326 3.53390558026257 2495067.751178816 8.76289750126538 989.640884250794 56.3174904258055 -14.3068921164791 15053.6785476024 T 24 CATAB v2.0f-lin.ifort 2020-Nov-12 21:01:09 2020-Nov-12 21:01

Alternate Designations
 1996 RR13 = 2001 TY113 
Ephemeris | Orbit Diagram | Orbital Elements | Mission Design | Physical Parameters | Discovery Circumstances | Close-Approach Data ]
ABOUT SSD CREDITS/AWARDS PRIVACY/COPYRIGHT GLOSSARY LINKS
FirstGov 2020-Nov-30 08:41 UT
(server date/time)  
NASA Home Page
Site Manager:   Ryan S. Park
Webmaster  Alan B. Chamberlin